Weather History for KGYY - August, 2013

Change the Weather History Date:

Thursday, August 22, 2013

  Actual Average Record
Temperature  
Mean Temperature 70 °F -  
Max Temperature 78 °F 84 °F 96 °F (1955)
Min Temperature 62 °F 65 °F 48 °F (1999)
Cooling Degree Days 6    
Growing Degree Days 20 (Base 50)    
Moisture  
Dew Point 66 °F    
Average Humidity 84    
Maximum Humidity 94    
Minimum Humidity 60    
Precipitation  
Precipitation 0.01 in - - ()
Sea Level Pressure  
Sea Level Pressure 30.08 in    
Wind  
Wind Speed 5 mph (SW)    
Max Wind Speed 20 mph    
Max Gust Speed 36 mph    
Visibility 9 miles    
Events Rain , Thunderstorm    
Averages and records for this station are not official NWS values.
T = Trace of Precipitation, MM = Missing Value Source: NWS Daily Summary

Daily Weather History Graph

Daily Weather History Graph

Search for Another Location

Airport or City:

Trip Planner

Search our weather history database for the weather conditions in past years. The results will help you decide how hot, cold, wet, or windy it might be!

Date:

Astronomy

Aug. 22, 2013 Rise Set
Actual Time 6:05 AM CDT 7:38 PM CDT
Civil Twilight 5:36 AM CDT 8:07 PM CDT
Nautical Twilight 5:01 AM CDT 8:42 PM CDT
Astronomical Twilight 4:23 AM CDT 9:20 PM CDT
Moon 8:19 PM CDT (8/22) 7:56 AM CDT (8/22)
Length of Visible Light 14h 31m
Length of Day
13h 32m
Waning Gibbous, 96% of the Moon is Illuminated
Aug 22
Waning Gibbous
Aug 28
Last Quarter
Sep 5
New
Sep 12
First Quarter
Sep 19
Full

Hourly Weather History & Observations

Time (CDT) Temp. Dew Point Humidity Pressure Visibility Wind Dir Wind Speed Gust Speed Precip Events Conditions
12:15 AM 79.7 °F 64.8 °F 60% 30.05 in 10.0 mi Calm Calm - N/A Thunderstorm Mostly Cloudy
12:35 AM 78.8 °F 65.7 °F 64% 30.05 in 10.0 mi Calm Calm - N/A Thunderstorm Mostly Cloudy
12:55 AM 78.3 °F 66.4 °F 67% 30.05 in 7.0 mi SSW 4.6 mph - 0.01 in Rain Rain
1:15 AM 76.1 °F 68.2 °F 76% 30.05 in 10.0 mi SSW 3.5 mph - N/A   Mostly Cloudy
1:35 AM 76.5 °F 67.8 °F 75% 30.08 in 10.0 mi North 19.6 mph 28.8 mph N/A   Overcast
1:55 AM 73.9 °F 66.9 °F 79% 30.08 in 10.0 mi NE 9.2 mph 19.6 mph N/A   Overcast
2:15 AM 73.4 °F 67.5 °F 82% 30.07 in 10.0 mi East 9.2 mph - N/A Thunderstorm Scattered Clouds
2:35 AM 74.3 °F 67.3 °F 79% 30.05 in 10.0 mi East 9.2 mph - N/A   Clear
2:55 AM 73.4 °F 67.3 °F 81% 30.06 in 10.0 mi ESE 8.1 mph - N/A   Clear
3:15 AM 72.5 °F 67.6 °F 85% 30.06 in 10.0 mi SE 6.9 mph - N/A   Clear
3:35 AM 72.5 °F 67.8 °F 85% 30.06 in 10.0 mi SSE 4.6 mph - N/A   Scattered Clouds
3:55 AM 72.5 °F 67.8 °F 85% 30.07 in 10.0 mi South 4.6 mph - N/A   Scattered Clouds
4:15 AM 72.7 °F 68.0 °F 85% 30.06 in 10.0 mi South 3.5 mph - N/A Thunderstorm Mostly Cloudy
4:35 AM 72.7 °F 68.2 °F 86% 30.05 in 7.0 mi South 4.6 mph - N/A Rain Light Rain
4:45 AM 73.4 °F 68.0 °F 83% 30.05 in 10.0 mi Calm Calm - N/A   Overcast
5:45 AM 73.4 °F 68.0 °F 83% 30.05 in 10.0 mi SW 4.6 mph - N/A   Overcast
6:45 AM 73.4 °F 68.0 °F 83% 30.05 in 10.0 mi SW 5.8 mph - N/A   Overcast
7:45 AM 75.2 °F 68.0 °F 78% 30.07 in 10.0 mi WSW 11.5 mph - N/A   Overcast
8:45 AM 75.2 °F 68.0 °F 78% 30.07 in 10.0 mi WSW 11.5 mph 17.3 mph N/A   Overcast
9:45 AM 73.4 °F 68.0 °F 83% 30.07 in 10.0 mi WSW 11.5 mph - N/A   Overcast
10:45 AM 73.4 °F 68.0 °F 83% 30.08 in 10.0 mi WSW 13.8 mph - N/A   Overcast
11:45 AM 73.4 °F 66.2 °F 78% 30.13 in 5.0 mi West 17.3 mph 35.7 mph N/A Rain Light Rain
12:45 PM 73.4 °F 68.0 °F 83% 30.14 in 5.0 mi WNW 17.3 mph - N/A Rain Light Rain
1:45 PM 73.4 °F 68.0 °F 83% 30.13 in 10.0 mi WNW 15.0 mph - N/A   Overcast
2:45 PM 73.4 °F 68.0 °F 83% 30.11 in 7.0 mi NW 4.6 mph - N/A   Overcast
3:45 PM 71.6 °F 68.0 °F 88% 30.00 in 10.0 mi ESE 10.4 mph - N/A   Overcast
4:15 PM 73.4 °F 68.0 °F 83% 30.04 in 10.0 mi West 6.9 mph - N/A   Overcast
4:45 PM 73.4 °F 68.0 °F 83% 30.06 in 10.0 mi Calm Calm - N/A   Overcast
5:45 PM 71.6 °F 66.2 °F 83% 30.05 in 15.0 mi Calm Calm - N/A   Overcast
6:45 PM 73.4 °F 66.2 °F 78% 30.07 in 15.0 mi Calm Calm - N/A   Mostly Cloudy
7:45 PM 69.8 °F 66.2 °F 88% 30.10 in 15.0 mi Calm Calm - N/A   Scattered Clouds
8:45 PM 66.2 °F 64.4 °F 94% 30.10 in 20.0 mi Calm Calm - N/A   Partly Cloudy
9:15 PM 66.7 °F 64.0 °F 91% 30.11 in 7.0 mi Calm Calm - N/A   Clear
9:35 PM 65.3 °F 63.0 °F 92% 30.12 in 4.0 mi Calm Calm - N/A   Clear
9:45 PM 64.4 °F 62.6 °F 94% 30.12 in 20.0 mi Calm Calm - N/A   Partly Cloudy
9:55 PM 64.6 °F 62.2 °F 92% 30.12 in 3.0 mi Calm Calm - N/A   Clear
10:15 PM 63.7 °F 61.7 °F 93% 30.12 in 2.5 mi Calm Calm - N/A   Clear
10:35 PM 63.3 °F 61.2 °F 93% 30.12 in 2.5 mi Calm Calm - N/A   Clear
10:55 PM 64.9 °F 63.1 °F 94% 30.12 in 2.0 mi Calm Calm - N/A   Clear
11:15 PM 63.0 °F 61.0 °F 93% 30.11 in 3.0 mi Calm Calm - N/A   Clear
11:35 PM 62.6 °F 60.6 °F 93% 30.11 in 3.0 mi Calm Calm - N/A   Clear
11:55 PM 62.6 °F 60.8 °F 94% 30.12 in 2.5 mi Calm Calm - N/A   Clear